Year,Month,Day,Hour,Minute,Value (Times are PST for temperature in C)
2016,04,19,00,00,14.40
2016,04,19,00,01,14.40
2016,04,19,00,02,14.40
2016,04,19,00,03,14.40
2016,04,19,00,04,14.40
2016,04,19,00,05,14.40
2016,04,19,00,06,14.40
2016,04,19,00,07,14.40
2016,04,19,00,08,14.40
2016,04,19,00,09,14.30
2016,04,19,00,10,14.30
2016,04,19,00,11,14.30
2016,04,19,00,12,14.30
2016,04,19,00,13,14.30
2016,04,19,00,14,14.20
2016,04,19,00,15,14.20
2016,04,19,00,16,14.20
2016,04,19,00,17,14.20
2016,04,19,00,18,14.20
2016,04,19,00,19,14.10
2016,04,19,00,20,14.00
2016,04,19,00,21,14.00
2016,04,19,00,22,13.90
2016,04,19,00,23,13.90
2016,04,19,00,24,13.90
2016,04,19,00,25,13.80
2016,04,19,00,26,13.80
2016,04,19,00,27,13.80
2016,04,19,00,28,13.80
2016,04,19,00,29,13.70
2016,04,19,00,30,13.70
2016,04,19,00,31,13.70
2016,04,19,00,32,13.70
2016,04,19,00,33,13.70
2016,04,19,00,34,13.70
2016,04,19,00,35,13.70
2016,04,19,00,36,13.70
2016,04,19,00,37,13.70
2016,04,19,00,38,13.70
2016,04,19,00,39,13.70
2016,04,19,00,40,13.70
2016,04,19,00,41,13.70
2016,04,19,00,42,13.70
2016,04,19,00,43,13.70
2016,04,19,00,44,13.70
2016,04,19,00,45,13.70
2016,04,19,00,46,13.70
2016,04,19,00,47,13.70
2016,04,19,00,48,13.60
2016,04,19,00,49,13.60
2016,04,19,00,50,13.50
2016,04,19,00,51,13.50
2016,04,19,00,52,13.40
2016,04,19,00,53,13.30
2016,04,19,00,54,13.30
2016,04,19,00,55,13.20
2016,04,19,00,56,13.20
2016,04,19,00,57,13.20
2016,04,19,00,58,13.20
2016,04,19,00,59,13.20
2016,04,19,01,00,13.20
2016,04,19,01,01,13.20
2016,04,19,01,02,13.20
2016,04,19,01,03,13.20
2016,04,19,01,04,13.20
2016,04,19,01,05,13.10
2016,04,19,01,06,13.10
2016,04,19,01,07,13.10
2016,04,19,01,08,13.00
2016,04,19,01,09,13.00
2016,04,19,01,10,13.00
2016,04,19,01,11,13.00
2016,04,19,01,12,13.00
2016,04,19,01,13,13.00
2016,04,19,01,14,13.00
2016,04,19,01,15,13.00
2016,04,19,01,16,13.00
2016,04,19,01,17,13.00
2016,04,19,01,18,13.00
2016,04,19,01,19,13.00
2016,04,19,01,20,13.00
2016,04,19,01,21,13.00
2016,04,19,01,22,13.00
2016,04,19,01,23,13.00
2016,04,19,01,24,12.90
2016,04,19,01,25,12.90
2016,04,19,01,26,12.90
2016,04,19,01,27,12.80
2016,04,19,01,28,12.70
2016,04,19,01,29,12.60
2016,04,19,01,30,12.60
2016,04,19,01,31,12.50
2016,04,19,01,32,12.50
2016,04,19,01,33,12.50
2016,04,19,01,34,12.40
2016,04,19,01,35,12.40
2016,04,19,01,36,12.40
2016,04,19,01,37,12.30
2016,04,19,01,38,12.30
2016,04,19,01,39,12.30
2016,04,19,01,40,12.30
2016,04,19,01,41,12.30
2016,04,19,01,42,12.30
2016,04,19,01,43,12.30
2016,04,19,01,44,12.30
2016,04,19,01,45,12.30
2016,04,19,01,46,12.30
2016,04,19,01,47,12.30
2016,04,19,01,48,12.30
2016,04,19,01,49,12.30
2016,04,19,01,50,12.30
2016,04,19,01,51,12.30
2016,04,19,01,52,12.30
2016,04,19,01,53,12.20
2016,04,19,01,54,12.20
2016,04,19,01,55,12.20
2016,04,19,01,56,12.10
2016,04,19,01,57,12.10
2016,04,19,01,58,12.00
2016,04,19,01,59,12.00
2016,04,19,02,00,11.90
2016,04,19,02,01,11.90
2016,04,19,02,02,11.90
2016,04,19,02,03,11.90
2016,04,19,02,04,11.90
2016,04,19,02,05,11.80
2016,04,19,02,06,11.80
2016,04,19,02,07,11.80
2016,04,19,02,08,11.80
2016,04,19,02,09,11.80
2016,04,19,02,10,11.80
2016,04,19,02,11,11.80
2016,04,19,02,12,11.80
2016,04,19,02,13,11.80
2016,04,19,02,14,11.80
2016,04,19,02,15,11.80
2016,04,19,02,16,11.80
2016,04,19,02,17,11.90
2016,04,19,02,18,11.90
2016,04,19,02,19,11.90
2016,04,19,02,20,11.90
2016,04,19,02,21,11.90
2016,04,19,02,22,11.90
2016,04,19,02,23,11.90
2016,04,19,02,24,11.90
2016,04,19,02,25,11.80
2016,04,19,02,26,11.80
2016,04,19,02,27,11.80
2016,04,19,02,28,11.80
2016,04,19,02,29,11.70
2016,04,19,02,30,11.70
2016,04,19,02,31,11.60
2016,04,19,02,32,11.60
2016,04,19,02,33,11.60
2016,04,19,02,34,11.60
2016,04,19,02,35,11.60
2016,04,19,02,36,11.60
2016,04,19,02,37,11.60
2016,04,19,02,38,11.60
2016,04,19,02,39,11.60
2016,04,19,02,40,11.60
2016,04,19,02,41,11.60
2016,04,19,02,42,11.60
2016,04,19,02,43,11.70
2016,04,19,02,44,11.70
2016,04,19,02,45,11.60
2016,04,19,02,46,11.60
2016,04,19,02,47,11.60
2016,04,19,02,48,11.60
2016,04,19,02,49,11.60
2016,04,19,02,50,11.60
2016,04,19,02,51,11.60
2016,04,19,02,52,11.60
2016,04,19,02,53,11.60
2016,04,19,02,54,11.60
2016,04,19,02,55,11.60
2016,04,19,02,56,11.40
2016,04,19,02,57,11.40
2016,04,19,02,58,11.40
2016,04,19,02,59,11.40
2016,04,19,03,00,11.40
2016,04,19,03,01,11.40
2016,04,19,03,02,11.40
2016,04,19,03,03,11.40
2016,04,19,03,04,11.30
2016,04,19,03,05,11.30
2016,04,19,03,06,11.30
2016,04,19,03,07,11.30
2016,04,19,03,08,11.30
2016,04,19,03,09,11.30
2016,04,19,03,10,11.30
2016,04,19,03,11,11.30
2016,04,19,03,12,11.30
2016,04,19,03,13,11.40
2016,04,19,03,14,11.40
2016,04,19,03,15,11.30
2016,04,19,03,16,11.30
2016,04,19,03,17,11.30
2016,04,19,03,18,11.30
2016,04,19,03,19,11.30
2016,04,19,03,20,11.30
2016,04,19,03,21,11.30
2016,04,19,03,22,11.30
2016,04,19,03,23,11.30
2016,04,19,03,24,11.30
2016,04,19,03,25,11.30
2016,04,19,03,26,11.30
2016,04,19,03,27,11.30
2016,04,19,03,28,11.30
2016,04,19,03,29,11.20
2016,04,19,03,30,11.20
2016,04,19,03,31,11.10
2016,04,19,03,32,11.10
2016,04,19,03,33,11.10
2016,04,19,03,34,11.10
2016,04,19,03,35,11.00
2016,04,19,03,36,10.90
2016,04,19,03,37,10.90
2016,04,19,03,38,10.90
2016,04,19,03,39,10.90
2016,04,19,03,40,10.90
2016,04,19,03,41,10.90
2016,04,19,03,42,11.00
2016,04,19,03,43,11.10
2016,04,19,03,44,11.10
2016,04,19,03,45,11.20
2016,04,19,03,46,11.20
2016,04,19,03,47,11.30
2016,04,19,03,48,11.40
2016,04,19,03,49,11.40
2016,04,19,03,50,11.50
2016,04,19,03,51,11.60
2016,04,19,03,52,11.60
2016,04,19,03,53,11.60
2016,04,19,03,54,11.60
2016,04,19,03,55,11.70
2016,04,19,03,56,11.70
2016,04,19,03,57,11.80
2016,04,19,03,58,11.80
2016,04,19,03,59,11.80
2016,04,19,04,00,11.80
2016,04,19,04,01,11.90
2016,04,19,04,02,11.90
2016,04,19,04,03,12.00
2016,04,19,04,04,12.00
2016,04,19,04,05,12.00
2016,04,19,04,06,12.00
2016,04,19,04,07,12.00
2016,04,19,04,08,12.10
2016,04,19,04,09,12.10
2016,04,19,04,10,12.10
2016,04,19,04,11,12.10
2016,04,19,04,12,12.10
2016,04,19,04,13,12.20
2016,04,19,04,14,12.20
2016,04,19,04,15,12.30
2016,04,19,04,16,12.30
2016,04,19,04,17,12.30
2016,04,19,04,18,12.30
2016,04,19,04,19,12.40
2016,04,19,04,20,12.40
2016,04,19,04,21,12.40
2016,04,19,04,22,12.40
2016,04,19,04,23,12.40
2016,04,19,04,24,12.30
2016,04,19,04,25,12.30
2016,04,19,04,26,12.30
2016,04,19,04,27,12.30
2016,04,19,04,28,12.30
2016,04,19,04,29,12.30
2016,04,19,04,30,12.30
2016,04,19,04,31,12.30
2016,04,19,04,32,12.30
2016,04,19,04,33,12.30
2016,04,19,04,34,12.40
2016,04,19,04,35,12.40
2016,04,19,04,36,12.40
2016,04,19,04,37,12.40
2016,04,19,04,38,12.40
2016,04,19,04,39,12.50
2016,04,19,04,40,12.50
2016,04,19,04,41,12.50
2016,04,19,04,42,12.50
2016,04,19,04,43,12.50
2016,04,19,04,44,12.50
2016,04,19,04,45,12.40
2016,04,19,04,46,12.40
2016,04,19,04,47,12.40
2016,04,19,04,48,12.40
2016,04,19,04,49,12.40
2016,04,19,04,50,12.40
2016,04,19,04,51,12.30
2016,04,19,04,52,12.30
2016,04,19,04,53,12.30
2016,04,19,04,54,12.30
2016,04,19,04,55,12.20
2016,04,19,04,56,12.20
2016,04,19,04,57,12.20
2016,04,19,04,58,12.20
2016,04,19,04,59,12.20
2016,04,19,05,00,12.20
2016,04,19,05,01,12.20
2016,04,19,05,02,12.30
2016,04,19,05,03,12.30
2016,04,19,05,04,12.30
2016,04,19,05,05,12.30
2016,04,19,05,06,12.30
2016,04,19,05,07,12.40
2016,04,19,05,08,12.40
2016,04,19,05,09,12.40
2016,04,19,05,10,12.50
2016,04,19,05,11,12.50
2016,04,19,05,12,12.50
2016,04,19,05,13,12.50
2016,04,19,05,14,12.50
2016,04,19,05,15,12.60
2016,04,19,05,16,12.60
2016,04,19,05,17,12.60
2016,04,19,05,18,12.60
2016,04,19,05,19,12.70
2016,04,19,05,20,12.70
2016,04,19,05,21,12.80
2016,04,19,05,22,12.80
2016,04,19,05,23,12.80
2016,04,19,05,24,12.90
2016,04,19,05,25,12.90
2016,04,19,05,26,12.90
2016,04,19,05,27,13.00
2016,04,19,05,28,13.00
2016,04,19,05,29,13.00
2016,04,19,05,30,13.00
2016,04,19,05,31,13.00
2016,04,19,05,32,13.10
2016,04,19,05,33,13.10
2016,04,19,05,34,13.10
2016,04,19,05,35,13.10
2016,04,19,05,36,13.10
2016,04,19,05,37,13.10
2016,04,19,05,38,13.10
2016,04,19,05,39,13.20
2016,04,19,05,40,13.20
2016,04,19,05,41,13.30
2016,04,19,05,42,13.30
2016,04,19,05,43,13.30
2016,04,19,05,44,13.30
2016,04,19,05,45,13.30
2016,04,19,05,46,13.20
2016,04,19,05,47,13.20
2016,04,19,05,48,13.20
2016,04,19,05,49,13.20
2016,04,19,05,50,13.20
2016,04,19,05,51,13.20
2016,04,19,05,52,13.20
2016,04,19,05,53,13.20
2016,04,19,05,54,13.20
2016,04,19,05,55,13.20
2016,04,19,05,56,13.20
2016,04,19,05,57,13.30
2016,04,19,05,58,13.30
2016,04,19,05,59,13.30
2016,04,19,06,00,13.30
2016,04,19,06,01,13.30
2016,04,19,06,02,13.30
2016,04,19,06,03,13.30
2016,04,19,06,04,13.30
2016,04,19,06,05,13.30
2016,04,19,06,06,13.30
2016,04,19,06,07,13.30
2016,04,19,06,08,13.30
2016,04,19,06,09,13.30
2016,04,19,06,10,13.30
2016,04,19,06,11,13.30
2016,04,19,06,12,13.30
2016,04,19,06,13,13.30
2016,04,19,06,14,13.30
2016,04,19,06,15,13.30
2016,04,19,06,16,13.30
2016,04,19,06,17,13.30
2016,04,19,06,18,13.30
2016,04,19,06,19,13.30
2016,04,19,06,20,13.30
2016,04,19,06,21,13.30
2016,04,19,06,22,13.30
2016,04,19,06,23,13.30
2016,04,19,06,24,13.30
2016,04,19,06,25,13.30
2016,04,19,06,26,13.30
2016,04,19,06,27,13.40
2016,04,19,06,28,13.40
2016,04,19,06,29,13.40
2016,04,19,06,30,13.30
2016,04,19,06,31,13.30
2016,04,19,06,32,13.30
2016,04,19,06,33,13.30
2016,04,19,06,34,13.30
2016,04,19,06,35,13.30
2016,04,19,06,36,13.30
2016,04,19,06,37,13.30
2016,04,19,06,38,13.30
2016,04,19,06,39,13.30
2016,04,19,06,40,13.30
2016,04,19,06,41,13.40
2016,04,19,06,42,13.40
2016,04,19,06,43,13.40
2016,04,19,06,44,13.40
2016,04,19,06,45,13.40
2016,04,19,06,46,13.40
2016,04,19,06,47,13.40
2016,04,19,06,48,13.40
2016,04,19,06,49,13.40
2016,04,19,06,50,13.40
2016,04,19,06,51,13.40
2016,04,19,06,52,13.40
2016,04,19,06,53,13.40
2016,04,19,06,54,13.40
2016,04,19,06,55,13.40
2016,04,19,06,56,13.40
2016,04,19,06,57,13.40
2016,04,19,06,58,13.40
2016,04,19,06,59,13.40
2016,04,19,07,00,13.40
2016,04,19,07,01,13.40
2016,04,19,07,02,13.40
2016,04,19,07,03,13.30
2016,04,19,07,04,13.30
2016,04,19,07,05,13.30
2016,04,19,07,06,13.30
2016,04,19,07,07,13.30
2016,04,19,07,08,13.30
2016,04,19,07,09,13.30
2016,04,19,07,10,13.30
2016,04,19,07,11,13.30
2016,04,19,07,12,13.30
2016,04,19,07,13,13.30
2016,04,19,07,14,13.40
2016,04,19,07,15,13.40
2016,04,19,07,16,13.50
2016,04,19,07,17,13.40
2016,04,19,07,18,13.40
2016,04,19,07,19,13.40
2016,04,19,07,20,13.40
2016,04,19,07,21,13.40
2016,04,19,07,22,13.40
2016,04,19,07,23,13.40
2016,04,19,07,24,13.40
2016,04,19,07,25,13.40
2016,04,19,07,26,13.40
2016,04,19,07,27,13.40
2016,04,19,07,28,13.40
2016,04,19,07,29,13.40
2016,04,19,07,30,13.40
2016,04,19,07,31,13.40
2016,04,19,07,32,13.40
2016,04,19,07,33,13.40
2016,04,19,07,34,13.40
2016,04,19,07,35,13.40
2016,04,19,07,36,13.40
2016,04,19,07,37,13.40
2016,04,19,07,38,13.40
2016,04,19,07,39,13.50
2016,04,19,07,40,13.50
2016,04,19,07,41,13.50
2016,04,19,07,42,13.50
2016,04,19,07,43,13.50
2016,04,19,07,44,13.50
2016,04,19,07,45,13.60
2016,04,19,07,46,13.60
2016,04,19,07,47,13.60
2016,04,19,07,48,13.60
2016,04,19,07,49,13.70
2016,04,19,07,50,13.70
2016,04,19,07,51,13.70
2016,04,19,07,52,13.70
2016,04,19,07,53,13.70
2016,04,19,07,54,13.80
2016,04,19,07,55,13.80
2016,04,19,07,56,13.80
2016,04,19,07,57,13.90
2016,04,19,07,58,13.90
2016,04,19,07,59,13.90
2016,04,19,08,00,14.00
2016,04,19,08,01,14.00
2016,04,19,08,02,14.10
2016,04,19,08,03,14.20
2016,04,19,08,04,14.20
2016,04,19,08,05,14.30
2016,04,19,08,06,14.40
2016,04,19,08,07,14.50
2016,04,19,08,08,14.50
2016,04,19,08,09,14.60
2016,04,19,08,10,14.70
2016,04,19,08,11,14.70
2016,04,19,08,12,14.70
2016,04,19,08,13,14.70
2016,04,19,08,14,14.80
2016,04,19,08,15,14.70
2016,04,19,08,16,14.70
2016,04,19,08,17,14.70
2016,04,19,08,18,14.70
2016,04,19,08,19,14.70
2016,04,19,08,20,14.70
2016,04,19,08,21,14.70
2016,04,19,08,22,14.70
2016,04,19,08,23,14.80
2016,04,19,08,24,14.80
2016,04,19,08,25,14.80
2016,04,19,08,26,14.80
2016,04,19,08,27,14.80
2016,04,19,08,28,14.80
2016,04,19,08,29,14.80
2016,04,19,08,30,14.80
2016,04,19,08,31,14.90
2016,04,19,08,32,14.90
2016,04,19,08,33,15.00
2016,04,19,08,34,15.00
2016,04,19,08,35,15.00
2016,04,19,08,36,15.10
2016,04,19,08,37,15.10
2016,04,19,08,38,15.10
2016,04,19,08,39,15.10
2016,04,19,08,40,15.10
2016,04,19,08,41,15.10
2016,04,19,08,42,15.20
2016,04,19,08,43,15.20
2016,04,19,08,44,15.20
2016,04,19,08,45,15.20
2016,04,19,08,46,15.20
2016,04,19,08,47,15.30
2016,04,19,08,48,15.30
2016,04,19,08,49,15.30
2016,04,19,08,50,15.30
2016,04,19,08,51,15.40
2016,04,19,08,52,15.40
2016,04,19,08,53,15.40
2016,04,19,08,54,15.50
2016,04,19,08,55,15.50
2016,04,19,08,56,15.50
2016,04,19,08,57,15.60
2016,04,19,08,58,15.60
2016,04,19,08,59,15.70
2016,04,19,09,00,15.80
2016,04,19,09,01,15.80
2016,04,19,09,02,15.90
2016,04,19,09,03,15.90
2016,04,19,09,04,16.00
2016,04,19,09,05,16.10
2016,04,19,09,06,16.10
2016,04,19,09,07,16.10
2016,04,19,09,08,16.10
2016,04,19,09,09,16.10
2016,04,19,09,10,16.10
2016,04,19,09,11,16.10
2016,04,19,09,12,16.20
2016,04,19,09,13,16.20
2016,04,19,09,14,16.30
2016,04,19,09,15,16.30
2016,04,19,09,16,16.40
2016,04,19,09,17,16.50
2016,04,19,09,18,16.60
2016,04,19,09,19,16.70
2016,04,19,09,20,16.80
2016,04,19,09,21,16.80
2016,04,19,09,22,16.90
2016,04,19,09,23,17.00
2016,04,19,09,24,17.00
2016,04,19,09,25,17.10
2016,04,19,09,26,17.10
2016,04,19,09,27,17.20
2016,04,19,09,28,17.30
2016,04,19,09,29,17.30
2016,04,19,09,30,17.40
2016,04,19,09,31,17.40
2016,04,19,09,32,17.40
2016,04,19,09,33,17.50
2016,04,19,09,34,17.50
2016,04,19,09,35,17.50
2016,04,19,09,36,17.50
2016,04,19,09,37,17.50
2016,04,19,09,38,17.50
2016,04,19,09,39,17.50
2016,04,19,09,40,17.50
2016,04,19,09,41,17.50
2016,04,19,09,42,17.40
2016,04,19,09,43,17.50
2016,04,19,09,44,17.50
2016,04,19,09,45,17.50
2016,04,19,09,46,17.60
2016,04,19,09,47,17.60
2016,04,19,09,48,17.60
2016,04,19,09,49,17.70
2016,04,19,09,50,17.70
2016,04,19,09,51,17.70
2016,04,19,09,52,17.80
2016,04,19,09,53,17.80
2016,04,19,09,54,17.70
2016,04,19,09,55,17.70
2016,04,19,09,56,17.70
2016,04,19,09,57,17.70
2016,04,19,09,58,17.70
2016,04,19,09,59,17.80
2016,04,19,10,00,17.80
2016,04,19,10,01,17.90
2016,04,19,10,02,17.90
2016,04,19,10,03,17.80
2016,04,19,10,04,17.90
2016,04,19,10,05,17.90
2016,04,19,10,06,17.80
2016,04,19,10,07,17.80
2016,04,19,10,08,17.90
2016,04,19,10,09,17.90
2016,04,19,10,10,17.90
2016,04,19,10,11,18.00
2016,04,19,10,12,18.10
2016,04,19,10,13,18.20
2016,04,19,10,14,18.20
2016,04,19,10,15,18.20
2016,04,19,10,16,18.20
2016,04,19,10,17,18.20
2016,04,19,10,18,18.20
2016,04,19,10,19,18.20
2016,04,19,10,20,18.20
2016,04,19,10,21,18.20
2016,04,19,10,22,18.20
2016,04,19,10,23,18.20
2016,04,19,10,24,18.20
2016,04,19,10,25,18.20
2016,04,19,10,26,18.20
2016,04,19,10,27,18.20
2016,04,19,10,28,18.20
2016,04,19,10,29,18.20
2016,04,19,10,30,18.20
2016,04,19,10,31,18.20
2016,04,19,10,32,18.20
2016,04,19,10,33,18.20
2016,04,19,10,34,18.20
2016,04,19,10,35,18.20
2016,04,19,10,36,18.20
2016,04,19,10,37,18.20
2016,04,19,10,38,18.20
2016,04,19,10,39,18.20
2016,04,19,10,40,18.20
2016,04,19,10,41,18.20
2016,04,19,10,42,18.20
2016,04,19,10,43,18.20
2016,04,19,10,44,18.20
2016,04,19,10,45,18.20
2016,04,19,10,46,18.30
2016,04,19,10,47,18.30
2016,04,19,10,48,18.30
2016,04,19,10,49,18.30
2016,04,19,10,50,18.30
2016,04,19,10,51,18.30
2016,04,19,10,52,18.30
2016,04,19,10,53,18.40
2016,04,19,10,54,18.50
2016,04,19,10,55,18.50
2016,04,19,10,56,18.50
2016,04,19,10,57,18.50
2016,04,19,10,58,18.40
2016,04,19,10,59,18.50
2016,04,19,11,00,18.40
2016,04,19,11,01,18.40
2016,04,19,11,02,18.50
2016,04,19,11,03,18.50
2016,04,19,11,04,18.50
2016,04,19,11,05,18.60
2016,04,19,11,06,18.60
2016,04,19,11,07,18.60
2016,04,19,11,08,18.60
2016,04,19,11,09,18.60
2016,04,19,11,10,18.50
2016,04,19,11,11,18.50
2016,04,19,11,12,18.50
2016,04,19,11,13,18.50
2016,04,19,11,14,18.50
2016,04,19,11,15,18.50
2016,04,19,11,16,18.50
2016,04,19,11,17,18.50
2016,04,19,11,18,18.50
2016,04,19,11,19,18.60
2016,04,19,11,20,18.60
2016,04,19,11,21,18.60
2016,04,19,11,22,18.70
2016,04,19,11,23,18.70
2016,04,19,11,24,18.80
2016,04,19,11,25,18.80
2016,04,19,11,26,18.90
2016,04,19,11,27,19.00
2016,04,19,11,28,19.10
2016,04,19,11,29,19.10
2016,04,19,11,30,19.10
2016,04,19,11,31,19.10
2016,04,19,11,32,19.20
2016,04,19,11,33,19.20
2016,04,19,11,34,19.20
2016,04,19,11,35,19.20
2016,04,19,11,36,19.20
2016,04,19,11,37,19.20
2016,04,19,11,38,19.20
2016,04,19,11,39,19.30
2016,04,19,11,40,19.40
2016,04,19,11,41,19.50
2016,04,19,11,42,19.60
2016,04,19,11,43,19.70
2016,04,19,11,44,19.70
2016,04,19,11,45,19.70
2016,04,19,11,46,19.70
2016,04,19,11,47,19.70
2016,04,19,11,48,19.70
2016,04,19,11,49,19.70
2016,04,19,11,50,19.70
2016,04,19,11,51,19.70
2016,04,19,11,52,19.80
2016,04,19,11,53,19.90
2016,04,19,11,54,19.90
2016,04,19,11,55,20.00
2016,04,19,11,56,20.10
2016,04,19,11,57,20.20
2016,04,19,11,58,20.20
2016,04,19,11,59,20.20
2016,04,19,12,00,20.20
2016,04,19,12,01,20.20
2016,04,19,12,02,20.20
2016,04,19,12,03,20.20
2016,04,19,12,04,20.20
2016,04,19,12,05,20.20
2016,04,19,12,06,20.20
2016,04,19,12,07,20.20
2016,04,19,12,08,20.20
2016,04,19,12,09,20.20
2016,04,19,12,10,20.20
2016,04,19,12,11,20.20
2016,04,19,12,12,20.20
2016,04,19,12,13,20.20
2016,04,19,12,14,20.20
2016,04,19,12,15,20.20
2016,04,19,12,16,20.10
2016,04,19,12,17,20.10
2016,04,19,12,18,20.10
2016,04,19,12,19,20.20
2016,04,19,12,20,20.20
2016,04,19,12,21,20.20
2016,04,19,12,22,20.20
2016,04,19,12,23,20.40
2016,04,19,12,24,20.40
2016,04,19,12,25,20.50
2016,04,19,12,26,20.40
2016,04,19,12,27,20.40
2016,04,19,12,28,20.40
2016,04,19,12,29,20.40
2016,04,19,12,30,20.40
2016,04,19,12,31,20.50
2016,04,19,12,32,20.50
2016,04,19,12,33,20.50
2016,04,19,12,34,20.50
2016,04,19,12,35,20.60
2016,04,19,12,36,20.70
2016,04,19,12,37,20.80
2016,04,19,12,38,20.80
2016,04,19,12,39,20.80
2016,04,19,12,40,20.80
2016,04,19,12,41,20.80
2016,04,19,12,42,20.80
2016,04,19,12,43,20.70
2016,04,19,12,44,20.80
2016,04,19,12,45,20.80
2016,04,19,12,46,20.80
2016,04,19,12,47,20.80
2016,04,19,12,48,20.80
2016,04,19,12,49,20.80
2016,04,19,12,50,20.80
2016,04,19,12,51,20.80
2016,04,19,12,52,20.80
2016,04,19,12,53,20.80
2016,04,19,12,54,20.80
2016,04,19,12,55,20.80
2016,04,19,12,56,20.80
2016,04,19,12,57,20.80
2016,04,19,12,58,20.70
2016,04,19,12,59,20.70
2016,04,19,13,00,20.70
2016,04,19,13,01,20.80
2016,04,19,13,02,20.90
2016,04,19,13,03,20.90
2016,04,19,13,04,21.00
2016,04,19,13,05,21.00
2016,04,19,13,06,21.00
2016,04,19,13,07,21.00
2016,04,19,13,08,21.00
2016,04,19,13,09,21.00
2016,04,19,13,10,21.00
2016,04,19,13,11,20.90
2016,04,19,13,12,20.90
2016,04,19,13,13,20.90
2016,04,19,13,14,20.90
2016,04,19,13,15,20.90
2016,04,19,13,16,20.90
2016,04,19,13,17,20.90
2016,04,19,13,18,20.90
2016,04,19,13,19,20.90
2016,04,19,13,20,21.00
2016,04,19,13,21,21.00
2016,04,19,13,22,21.00
2016,04,19,13,23,21.00
2016,04,19,13,24,21.00
2016,04,19,13,25,21.00
2016,04,19,13,26,20.90
2016,04,19,13,27,20.90
2016,04,19,13,28,20.90
2016,04,19,13,29,20.90
2016,04,19,13,30,20.90
2016,04,19,13,31,20.90
2016,04,19,13,32,20.90
2016,04,19,13,33,21.00
2016,04,19,13,34,21.00
2016,04,19,13,35,21.10
2016,04,19,13,36,21.10
2016,04,19,13,37,21.10
2016,04,19,13,38,21.10
2016,04,19,13,39,21.10
2016,04,19,13,40,21.20
2016,04,19,13,41,21.20
2016,04,19,13,42,21.20
2016,04,19,13,43,21.20
2016,04,19,13,44,21.30
2016,04,19,13,45,21.30
2016,04,19,13,46,21.30
2016,04,19,13,47,21.40
2016,04,19,13,48,21.50
2016,04,19,13,49,21.60
2016,04,19,13,50,21.60
2016,04,19,13,51,21.60
2016,04,19,13,52,21.70
2016,04,19,13,53,21.70
2016,04,19,13,54,21.70
2016,04,19,13,55,21.70
2016,04,19,13,56,21.60
2016,04,19,13,57,21.60
2016,04,19,13,58,21.50
2016,04,19,13,59,21.40
2016,04,19,14,00,21.40
2016,04,19,14,01,21.50
2016,04,19,14,02,21.60
2016,04,19,14,03,21.60
2016,04,19,14,04,21.70
2016,04,19,14,05,21.80
2016,04,19,14,06,21.80
2016,04,19,14,07,21.80
2016,04,19,14,08,21.80
2016,04,19,14,09,21.70
2016,04,19,14,10,21.70
2016,04,19,14,11,21.60
2016,04,19,14,12,21.60
2016,04,19,14,13,21.60
2016,04,19,14,14,21.60
2016,04,19,14,15,21.60
2016,04,19,14,16,21.60
2016,04,19,14,17,21.60
2016,04,19,14,18,21.60
2016,04,19,14,19,21.70
2016,04,19,14,20,21.70
2016,04,19,14,21,21.70
2016,04,19,14,22,21.70
2016,04,19,14,23,21.70
2016,04,19,14,24,21.80
2016,04,19,14,25,21.80
2016,04,19,14,26,21.80
2016,04,19,14,27,21.80
2016,04,19,14,28,21.80
2016,04,19,14,29,21.80
2016,04,19,14,30,21.80
2016,04,19,14,31,21.80
2016,04,19,14,32,21.80
2016,04,19,14,33,21.90
2016,04,19,14,34,22.00
2016,04,19,14,35,22.00
2016,04,19,14,36,22.00
2016,04,19,14,37,22.10
2016,04,19,14,38,22.10
2016,04,19,14,39,22.10
2016,04,19,14,40,22.10
2016,04,19,14,41,22.10
2016,04,19,14,42,22.10
2016,04,19,14,43,22.10
2016,04,19,14,44,22.10
2016,04,19,14,45,22.10
2016,04,19,14,46,22.00
2016,04,19,14,47,22.00
2016,04,19,14,48,21.90
2016,04,19,14,49,21.90
2016,04,19,14,50,21.90
2016,04,19,14,51,21.90
2016,04,19,14,52,22.00
2016,04,19,14,53,22.10
2016,04,19,14,54,22.20
2016,04,19,14,55,22.30
2016,04,19,14,56,22.40
2016,04,19,14,57,22.50
2016,04,19,14,58,22.50
2016,04,19,14,59,22.40
2016,04,19,15,00,22.40
2016,04,19,15,01,22.40
2016,04,19,15,02,22.40
2016,04,19,15,03,22.30
2016,04,19,15,04,22.20
2016,04,19,15,05,22.20
2016,04,19,15,06,22.10
2016,04,19,15,07,22.00
2016,04,19,15,08,22.00
2016,04,19,15,09,21.90
2016,04,19,15,10,21.80
2016,04,19,15,11,21.80
2016,04,19,15,12,21.80
2016,04,19,15,13,21.80
2016,04,19,15,14,21.80
2016,04,19,15,15,21.90
2016,04,19,15,16,21.90
2016,04,19,15,17,22.00
2016,04,19,15,18,22.20
2016,04,19,15,19,22.30
2016,04,19,15,20,22.40
2016,04,19,15,21,22.60
2016,04,19,15,22,22.70
2016,04,19,15,23,22.80
2016,04,19,15,24,22.90
2016,04,19,15,25,22.90
2016,04,19,15,26,23.00
2016,04,19,15,27,23.10
2016,04,19,15,28,23.10
2016,04,19,15,29,23.20
2016,04,19,15,30,23.20
2016,04,19,15,31,23.30
2016,04,19,15,32,23.30
2016,04,19,15,33,23.30
2016,04,19,15,34,23.30
2016,04,19,15,35,23.40
2016,04,19,15,36,23.50
2016,04,19,15,37,23.60
2016,04,19,15,38,23.70
2016,04,19,15,39,23.80
2016,04,19,15,40,23.90
2016,04,19,15,41,24.00
2016,04,19,15,42,24.10
2016,04,19,15,43,24.10
2016,04,19,15,44,24.10
2016,04,19,15,45,24.10
2016,04,19,15,46,24.00
2016,04,19,15,47,23.90
2016,04,19,15,48,23.90
2016,04,19,15,49,23.90
2016,04,19,15,50,23.80
2016,04,19,15,51,23.80
2016,04,19,15,52,23.80
2016,04,19,15,53,23.80
2016,04,19,15,54,23.80
2016,04,19,15,55,23.80
2016,04,19,15,56,23.80
2016,04,19,15,57,23.80
2016,04,19,15,58,23.90
2016,04,19,15,59,23.90
2016,04,19,16,00,23.90
2016,04,19,16,01,24.00
2016,04,19,16,02,24.10
2016,04,19,16,03,24.20
2016,04,19,16,04,24.20
2016,04,19,16,05,24.30
2016,04,19,16,06,24.30
2016,04,19,16,07,24.20
2016,04,19,16,08,24.20
2016,04,19,16,09,24.20
2016,04,19,16,10,24.20
2016,04,19,16,11,24.20
2016,04,19,16,12,24.10
2016,04,19,16,13,24.10
2016,04,19,16,14,24.10
2016,04,19,16,15,24.10
2016,04,19,16,16,24.00
2016,04,19,16,17,23.90
2016,04,19,16,18,23.90
2016,04,19,16,19,23.90
2016,04,19,16,20,23.90
2016,04,19,16,21,23.90
2016,04,19,16,22,23.80
2016,04,19,16,23,23.70
2016,04,19,16,24,23.70
2016,04,19,16,25,23.70
2016,04,19,16,26,23.70
2016,04,19,16,27,23.70
2016,04,19,16,28,23.70
2016,04,19,16,29,23.70
2016,04,19,16,30,23.70
2016,04,19,16,31,23.70
2016,04,19,16,32,23.80
2016,04,19,16,33,23.90
2016,04,19,16,34,24.00
2016,04,19,16,35,24.10
2016,04,19,16,36,24.00
2016,04,19,16,37,23.90
2016,04,19,16,38,23.90
2016,04,19,16,39,23.90
2016,04,19,16,40,23.80
2016,04,19,16,41,23.80
2016,04,19,16,42,23.80
2016,04,19,16,43,23.80
2016,04,19,16,44,23.70
2016,04,19,16,45,23.70
2016,04,19,16,46,23.70
2016,04,19,16,47,23.70
2016,04,19,16,48,23.70
2016,04,19,16,49,23.70
2016,04,19,16,50,23.70
2016,04,19,16,51,23.70
2016,04,19,16,52,23.70
2016,04,19,16,53,23.70
2016,04,19,16,54,23.70
2016,04,19,16,55,23.70
2016,04,19,16,56,23.70
2016,04,19,16,57,23.70
2016,04,19,16,58,23.60
2016,04,19,16,59,23.60
2016,04,19,17,00,23.60
2016,04,19,17,01,23.60
2016,04,19,17,02,23.60
2016,04,19,17,03,23.60
2016,04,19,17,04,23.60
2016,04,19,17,05,23.60
2016,04,19,17,06,23.60
2016,04,19,17,07,23.70
2016,04,19,17,08,23.70
2016,04,19,17,09,23.70
2016,04,19,17,10,23.70
2016,04,19,17,11,23.70
2016,04,19,17,12,23.70
2016,04,19,17,13,23.60
2016,04,19,17,14,23.60
2016,04,19,17,15,23.60
2016,04,19,17,16,23.60
2016,04,19,17,17,23.60
2016,04,19,17,18,23.40
2016,04,19,17,19,23.40